Home > Weather > Cedar Rapids > Past weeks

Flag for USA Past Weather in Cedar Rapids, Iowa, USA — Yesterday and Last 2 Weeks

Now
67 °F

Low clouds.


Feels Like: 67 °F
Forecast: 63 / 75 °F
Wind: 7 mph from Northwest

Location: Cedar Rapids Municipal Airport

Current Time: Jul 29, 2016 at 3:02:00 AM

Latest Report: Jul 29, 2016 at 1:52 AM


Visibility: 10 mi

Pressure: 29.93 "Hg

Humidity: 100%

Dew Point: 67 °F

Location of Cedar RapidsLocation

Past Weather in Cedar Rapids — Graph

°F

Cedar Rapids Temperature Yesterday

Maximum temperature yesterday: 80 °F (at 2:52 PM)
Minimum temperature yesterday: 64 °F (at 3:52 AM)
Average temperature yesterday: 71 °F

High & Low Weather Summary for the Past Weeks

 TemperatureHumidityPressure
High92 °F (Jul 21, 1:52 PM)100% (Jul 14, 1:55 AM)30.26 "Hg (Jul 14, 1:55 AM)
Low55 °F (Jul 16, 5:00 AM)54% (Jul 14, 4:52 PM)29.81 "Hg (Jul 24, 5:52 AM)
Average75 °F87%30.00 "Hg
* Reported Jul 14 1:55 AM — Jul 29 1:52 AM, Cedar Rapids, Weather by CustomWeather, © 2016

Note: Actual official high and low records may vary slightly from our data, if they occured in-between our weather recording intervals... More about our weather records

Advertising

Cedar Rapids Weather History for the Previous 24 Hours

Scroll right to see more
 ConditionsComfort  
Time TempWeatherWind HumidityBarometerVisibility
1:52 AM
Fri, Jul 29
67 °FLow clouds.7 mph100%29.93 "Hg10 mi
12:52 AM68 °FLow clouds.6 mph96%29.94 "Hg10 mi
11:52 PM
Thu, Jul 28
68 °FOvercast.6 mph96%29.93 "Hg10 mi
11:01 PM68 °FPassing clouds.8 mph96%29.95 "Hg10 mi
10:52 PM68 °FPassing clouds.8 mph96%29.93 "Hg10 mi
9:52 PM69 °FClear.7 mph96%29.92 "Hg10 mi
8:52 PM70 °FSunny.7 mph93%29.91 "Hg10 mi
7:52 PM74 °FSunny.9 mph82%29.90 "Hg10 mi
6:52 PM76 °FSunny.10 mph77%29.90 "Hg10 mi
5:52 PM77 °FScattered clouds.15 mph74%29.90 "Hg10 mi
4:52 PM79 °FScattered clouds.13 mph72%29.90 "Hg10 mi
3:52 PM80 °FPassing clouds.14 mph67%29.89 "Hg10 mi
2:52 PM80 °FScattered clouds.13 mph69%29.89 "Hg10 mi
1:52 PM79 °FPartly sunny.10 mph72%29.90 "Hg10 mi
12:52 PM76 °FPartly sunny.9 mph77%29.91 "Hg10 mi
11:52 AM75 °FBroken clouds.12 mph79%29.93 "Hg10 mi
10:52 AM72 °FOvercast.12 mph84%29.93 "Hg10 mi
9:52 AM69 °FLow clouds.13 mph93%29.92 "Hg10 mi
8:56 AM71 °FPartly sunny.13 mph90%29.93 "Hg10 mi
7:52 AM69 °FScattered clouds.7 mph100%29.90 "Hg8 mi
7:04 AM67 °FFog.10 mph100%29.92 "Hg0 mi
6:52 AM67 °FFog.9 mph100%29.90 "Hg5 mi
5:52 AM67 °FClear.9 mph100%29.88 "Hg8 mi
4:52 AM67 °FPassing clouds.8 mph100%29.88 "Hg9 mi
3:59 AM65 °FFog.No wind100%29.90 "Hg2 mi
3:52 AM64 °FFog.No wind100%29.88 "Hg3 mi
Weather by CustomWeather, © 2016

See weather overviewHow to use our weather pages